GW5267 Weather Reports


time (UTC)temp
C
wind
direction
speed
KPH
gust
KPH
rain 1hr
cm
rain 24hr
cm
rain mn
cm
humidity
%
barometer
mb
20260504070228 6 314 0.0 0.0 0.00 0.00 0.00 82 1015.4
20260504060149 6 314 0.0 0.0 0.00 0.00 0.00 67 1015.6
20260504050617 5 314 0.0 0.0 0.00 0.00 0.00 71 1015.8
20260504050114 5 314 0.0 0.0 0.00 0.00 0.00 68 1015.9
20260504045611 5 314 0.0 0.0 0.00 0.00 0.00 71 1015.7
20260504045106 5 314 0.0 0.0 0.00 0.00 0.00 67 1015.9
20260504044604 5 314 0.0 0.0 0.00 0.00 0.00 68 1015.8
20260504044100 5 314 0.0 0.0 0.00 0.00 0.00 68 1015.8
20260504043558 5 314 0.0 0.0 0.00 0.00 0.00 67 1015.8
20260504043055 5 314 0.0 0.0 0.00 0.00 0.00 69 1015.8
20260504042552 4 314 0.0 0.0 0.00 0.00 0.00 68 1015.8
20260504042044 4 314 0.0 0.0 0.00 0.00 0.00 68 1015.8
20260504041539 4 314 0.0 0.0 0.00 0.00 0.00 71 1015.9
20260504041036 4 314 0.0 0.0 0.00 0.00 0.00 74 1016.0
20260504040533 5 314 0.0 0.0 0.00 0.00 0.00 67 1016.0
20260504040030 5 314 0.0 0.0 0.00 0.00 0.00 66 1016.0
20260504035527 5 314 0.0 0.0 0.00 0.00 0.00 68 1015.9
20260504035023 5 314 0.0 0.0 0.00 0.00 0.00 67 1015.9
20260504034521 5 314 0.0 0.0 0.00 0.00 0.00 66 1016.0
20260504034018 5 314 0.0 0.0 0.00 0.00 0.00 65 1015.9
20260504033516 5 314 0.0 0.0 0.00 0.00 0.00 66 1015.8
20260504033013 5 314 0.0 0.0 0.00 0.00 0.00 65 1016.1
20260504032509 5 314 0.0 0.0 0.00 0.00 0.00 68 1016.0
20260504032006 5 314 0.0 0.0 0.00 0.00 0.00 67 1016.0
20260504031503 5 314 0.0 0.0 0.00 0.00 0.00 65 1016.2
20260504030959 5 314 0.0 0.0 0.00 0.00 0.00 65 1016.2
20260504030457 5 314 0.0 0.0 0.00 0.00 0.00 64 1016.2
20260504025952 5 314 0.0 0.0 0.00 0.00 0.00 67 1016.0
20260504025450 5 314 0.0 0.0 0.00 0.00 0.00 66 1016.0
20260504024947 5 314 0.0 0.0 0.00 0.00 0.00 66 1015.9
20260504024443 5 314 0.0 0.0 0.00 0.00 0.00 63 1016.0
20260504023940 6 314 0.0 0.0 0.00 0.00 0.00 62 1015.9
20260504023437 6 314 0.0 0.0 0.00 0.00 0.00 58 1016.0
20260504022933 6 314 0.0 0.0 0.00 0.00 0.00 56 1016.0
20260504022429 6 314 0.0 0.0 0.00 0.00 0.00 58 1015.8
20260504021926 6 314 0.0 0.0 0.00 0.00 0.00 59 1016.0
20260504021423 6 314 0.0 0.0 0.00 0.00 0.00 59 1016.1
20260504020921 6 314 0.0 0.0 0.00 0.00 0.00 59 1016.2
20260504020417 7 314 0.0 0.0 0.00 0.00 0.00 56 1016.0
20260504015914 7 314 0.0 0.0 0.00 0.00 0.00 53 1016.0
20260504015410 7 314 0.0 0.0 0.00 0.00 0.00 55 1015.9
20260504014906 7 314 0.0 0.0 0.00 0.00 0.00 54 1015.9
20260504014402 7 314 0.0 0.0 0.00 0.00 0.00 53 1015.9
20260504013859 7 314 0.0 0.0 0.00 0.00 0.00 53 1015.9
20260504013357 7 314 0.0 0.0 0.00 0.00 0.00 53 1016.0
20260504012853 8 314 0.0 0.0 0.00 0.00 0.00 51 1015.9
20260504012351 8 314 0.0 0.0 0.00 0.00 0.00 52 1015.6
20260504011848 8 314 0.0 0.0 0.00 0.00 0.00 52 1015.8
20260504011344 8 314 0.0 0.0 0.00 0.00 0.00 50 1015.7
20260504010841 8 314 0.0 0.0 0.00 0.00 0.00 51 1015.7
20260504010336 8 314 0.0 0.0 0.00 0.00 0.00 50 1015.9
20260504005833 8 314 0.0 0.0 0.00 0.00 0.00 50 1015.8
20260504005330 8 314 0.0 0.0 0.00 0.00 0.00 51 1015.7
20260504004827 8 314 0.0 0.0 0.00 0.00 0.00 52 1015.8
20260504004325 8 314 0.0 0.0 0.00 0.00 0.00 51 1015.7
20260504003821 8 314 0.0 0.0 0.00 0.00 0.00 51 1015.8
20260504003318 8 314 0.0 0.0 0.00 0.00 0.00 51 1015.7
20260504002814 8 315 0.0 0.0 0.00 0.00 0.00 49 1015.7
20260504002311 8 299 0.0 0.0 0.00 0.00 0.00 50 1015.7
20260504001809 9 298 0.0 0.0 0.00 0.00 0.00 51 1015.7
20260504001306 10 289 0.0 1.6 0.00 0.00 0.00 48 1015.6
20260504000803 10 270 1.6 3.2 0.00 0.00 0.00 45 1015.7
20260504000300 10 295 0.0 4.8 0.00 0.00 0.00 46 1015.6
20260503235758 10 278 3.2 4.8 0.00 0.00 0.00 44 1015.6
20260503235255 10 262 3.2 3.2 0.00 0.00 0.00 44 1015.6
20260503234753 10 285 3.2 6.4 0.00 0.00 0.00 43 1015.5
20260503234250 10 286 9.7 14.5 0.00 0.00 0.00 43 1015.6
20260503233747 11 260 9.7 12.9 0.00 0.00 0.00 41 1015.7
20260503233243 11 270 4.8 12.9 0.00 0.00 0.00 43 1015.8
20260503232741 11 305 1.6 4.8 0.00 0.00 0.00 44 1015.8
20260503232238 11 270 1.6 4.8 0.00 0.00 0.00 45 1015.9
20260503231736 11 278 3.2 11.3 0.00 0.00 0.00 42 1015.6
20260503231232 11 274 4.8 6.4 0.00 0.00 0.00 44 1015.7
20260503230723 11 269 8.0 16.1 0.00 0.00 0.00 42 1015.7
20260503230220 11 283 3.2 6.4 0.00 0.00 0.00 44 1015.8
20260503225717 11 286 6.4 14.5 0.00 0.00 0.00 43 1015.7
20260503225212 11 286 6.4 9.7 0.00 0.00 0.00 41 1015.6
20260503224709 11 257 9.7 12.9 0.00 0.00 0.00 42 1015.8
20260503224207 12 273 12.9 16.1 0.00 0.00 0.00 42 1015.6
20260503223705 12 253 6.4 14.5 0.00 0.00 0.00 40 1015.6
20260503223202 12 232 3.2 11.3 0.00 0.00 0.00 41 1015.7
20260503222658 12 262 9.7 12.9 0.00 0.00 0.00 42 1015.8
20260503222156 12 311 8.0 25.7 0.00 0.00 0.00 38 1015.9
20260503221654 12 303 9.7 17.7 0.00 0.00 0.00 41 1015.9
20260503221151 12 254 14.5 17.7 0.00 0.00 0.00 41 1015.7
20260503220648 12 309 9.7 16.1 0.00 0.00 0.00 38 1015.8
20260503220144 12 279 6.4 9.7 0.00 0.00 0.00 40 1015.8
20260503215641 12 272 11.3 16.1 0.00 0.00 0.00 40 1015.7
20260503215138 12 259 11.3 17.7 0.00 0.00 0.00 39 1015.7
20260503214637 12 242 3.2 20.9 0.00 0.00 0.00 40 1015.6
20260503214132 12 265 4.8 11.3 0.00 0.00 0.00 41 1015.8
20260503213631 12 274 4.8 12.9 0.00 0.00 0.00 40 1015.9
20260503213127 13 314 9.7 20.9 0.00 0.00 0.00 39 1015.8
20260503212625 12 272 3.2 6.4 0.00 0.00 0.00 43 1015.9
20260503212122 12 9 4.8 16.1 0.00 0.00 0.00 41 1015.7
20260503211620 12 285 9.7 22.5 0.00 0.00 0.00 39 1015.9
20260503211115 13 310 16.1 20.9 0.00 0.00 0.00 38 1015.9
20260503210612 12 254 3.2 17.7 0.00 0.00 0.00 42 1016.0
20260503210109 12 287 4.8 14.5 0.00 0.00 0.00 42 1015.9
20260503205604 12 301 8.0 17.7 0.00 0.00 0.00 39 1016.1
20260503205101 11 302 8.0 14.5 0.00 0.00 0.00 40 1015.9
20260503204558 12 292 6.4 16.1 0.00 0.00 0.00 41 1016.1
20260503204055 12 185 6.4 9.7 0.00 0.00 0.00 39 1016.2
20260503203552 11 23 8.0 11.3 0.00 0.00 0.00 39 1016.2
20260503203049 12 258 6.4 16.1 0.00 0.00 0.00 38 1016.1
20260503202547 11 314 6.4 14.5 0.00 0.00 0.00 40 1016.3
20260503202045 12 223 9.7 16.1 0.00 0.00 0.00 42 1016.4
20260503201543 12 276 16.1 22.5 0.00 0.00 0.00 41 1016.4
20260503201040 12 272 3.2 17.7 0.00 0.00 0.00 43 1016.4
20260503200536 12 289 4.8 6.4 0.00 0.00 0.00 39 1016.5
20260503200032 12 302 9.7 12.9 0.00 0.00 0.00 39 1016.6
20260503195530 11 250 9.7 16.1 0.00 0.00 0.00 44 1016.5
20260503195026 12 261 14.5 20.9 0.00 0.00 0.00 43 1016.6
20260503194524 12 262 8.0 14.5 0.00 0.00 0.00 42 1016.8
20260503194023 12 291 6.4 16.1 0.00 0.00 0.00 40 1017.1
20260503193521 11 327 9.7 20.9 0.00 0.00 0.00 40 1016.9
20260503193016 11 291 9.7 14.5 0.00 0.00 0.00 41 1016.9
20260503192512 11 288 4.8 9.7 0.00 0.00 0.00 39 1017.1
20260503192008 12 308 9.7 16.1 0.00 0.00 0.00 41 1017.1
20260503191505 11 327 11.3 14.5 0.00 0.00 0.00 44 1017.1
20260503191001 12 259 14.5 17.7 0.00 0.00 0.00 41 1017.2
20260503190459 11 250 4.8 6.4 0.00 0.00 0.00 42 1017.2
20260503185956 12 311 11.3 17.7 0.00 0.00 0.00 38 1017.4
20260503185452 11 326 11.3 16.1 0.00 0.00 0.00 40 1017.3
20260503184951 12 271 11.3 16.1 0.00 0.00 0.00 42 1017.4
20260503184448 12 301 6.4 16.1 0.00 0.00 0.00 45 1017.3
20260503183944 11 218 11.3 16.1 0.00 0.00 0.00 43 1017.6
20260503183441 11 265 1.6 16.1 0.00 0.00 0.00 43 1017.7
20260503182938 11 280 16.1 22.5 0.00 0.00 0.00 45 1017.5
20260503182437 10 279 11.3 14.5 0.00 0.00 0.00 44 1017.5
20260503181934 11 237 11.3 16.1 0.00 0.00 0.00 44 1017.6
20260503181431 10 261 14.5 20.9 0.00 0.00 0.00 44 1017.8
20260503180927 10 293 9.7 11.3 0.00 0.00 0.00 45 1017.7
20260503180427 11 309 14.5 24.1 0.00 0.00 0.00 43 1017.9
20260503175922 11 250 14.5 22.5 0.00 0.00 0.00 45 1017.8
20260503175420 11 306 8.0 12.9 0.00 0.00 0.00 51 1017.9
20260503174915 10 271 17.7 22.5 0.00 0.00 0.00 51 1018.0
20260503174415 10 309 6.4 11.3 0.00 0.00 0.00 44 1017.9
20260503173914 10 232 11.3 20.9 0.00 0.00 0.00 46 1018.0
20260503173411 10 261 6.4 16.1 0.00 0.00 0.00 46 1018.0
20260503172908 10 302 3.2 17.7 0.00 0.00 0.00 46 1018.0
20260503172405 9 299 16.1 20.9 0.00 0.00 0.00 48 1018.1
20260503171901 10 262 6.4 22.5 0.00 0.00 0.00 45 1018.2
20260503171358 10 283 4.8 24.1 0.00 0.00 0.00 48 1018.2
20260503170855 10 247 11.3 22.5 0.00 0.00 0.00 49 1018.2
20260503170352 9 306 6.4 11.3 0.00 0.00 0.00 47 1018.2
20260503150744 7 306 6.4 9.7 0.00 0.00 0.00 59 1019.2
20260503150240 7 257 8.0 14.5 0.00 0.00 0.00 55 1019.2
20260503140204 6 270 9.7 17.7 0.00 0.00 0.00 61 1019.2
20260503131134 5 305 6.4 12.9 0.00 0.00 0.00 69 1018.9
20260503130632 5 227 12.9 16.1 0.00 0.00 0.00 67 1018.9
20260503130129 5 287 6.4 11.3 0.00 0.00 0.00 69 1018.9
20260503110510 0 268 1.6 3.2 0.00 0.00 0.00 96 1018.1
20260503090356 0 281 0.0 0.0 0.00 0.00 0.00 95 1017.1
20260503081323 0 291 0.0 0.0 0.00 0.00 0.00 94 1016.9
20260503080820 0 291 0.0 0.0 0.00 0.00 0.00 94 1016.9
20260503080317 0 286 0.0 0.0 0.00 0.00 0.00 93 1016.8
20260503072753 1 278 0.0 0.0 0.00 0.00 0.00 88 1016.5
20260503072250 1 273 0.0 3.2 0.00 0.00 0.00 88 1016.4
20260503071746 1 282 1.6 4.8 0.00 0.00 0.00 88 1016.5
20260503071243 1 276 1.6 3.2 0.00 0.00 0.00 88 1016.5
20260503070739 1 277 3.2 4.8 0.00 0.00 0.00 87 1016.4